Simultaneous Nadir Overpasses (SNOs) Predictions

Prediction of SNOs between LANDSAT-8 and METOP-B Satellite Orbit:

Table of predicted SNOs for the next 14.0 days since TLE Epoch: 11/28/2020
Index Date (LANDSAT-8) Time (LANDSAT-8) Lat,Lon (LANDSAT-8) SZA (LANDSAT-8 ) Date (METOP-B) Time (METOP-B) Lat,Lon (METOP-B) SZA (METOP-B ) Distance(km) Time Diff (sec)
1 11/30/2020 00:19:10 -81.10, 34.79 75.04 11/30/2020 00:17:58 -81.10, 34.81 75.07 0.49 72
2 11/30/2020 01:08:35 81.13,-157.12 105.04 11/30/2020 01:08:37 81.13,-157.13 105.04 0.33 2
3 11/30/2020 01:57:31 -81.68, 22.54 73.29 11/30/2020 01:58:45 -81.34, 22.87 73.42 38.22 74
4 12/02/2020 19:53:25 -81.11, 101.44 74.61 12/02/2020 19:52:20 -81.11, 101.57 74.63 2.29 65
5 12/02/2020 20:42:51 81.12, -90.86 105.41 12/02/2020 20:43:00 81.13, -90.74 105.43 2.22 9
6 12/05/2020 15:27:40 -81.10, 167.68 74.30 12/05/2020 15:26:43 -81.10, 167.56 74.34 2.11 57
7 12/05/2020 16:17:05 81.13, -24.28 105.76 12/05/2020 16:17:22 81.13, -24.38 105.76 1.69 17
8 12/08/2020 11:01:55 -81.11,-125.76 74.01 12/08/2020 11:01:05 -81.11,-125.73 74.02 0.60 50
9 12/08/2020 11:51:20 81.13, 42.24 106.05 12/08/2020 11:51:44 81.14, 42.33 106.08 1.48 24
10 12/11/2020 06:36:10 -81.11, -59.26 73.78 12/11/2020 06:35:28 -81.11, -59.42 73.82 2.84 42
